Location: Kaiser
(34.0939°N, 117.4889°W)
Time: 03:24:19
(UTC+00:00)

ATLAS 3B R/B - Pass Details

Date: 29 October 2020
Orbit: 1014 x 1181 km, 63.8° (Epoch: 23 November)

Event Time Altitude Azimuth Distance (km) Brightness Sun altitude
Exits shadow 12:44:57 27° 284° (WNW) 1,850 3.4 -17.6°
Maximum altitude 12:46:39 30° 311° (NW) 1,731 3.4 -17.3°
Drops below altitude 10° 12:52:23 10° 11° (N) 2,826 5.0 -16.1°
Sets 12:55:24 0° 22° (NNE) 3,799 5.8 -15.5°
